Meeker, CO

2:43 AM MDT on April 25, 2017 (GMT -0600)
Meeker

Weather History for KEEO - March, 2013

Change the Weather History Date:

Wednesday, March 6, 2013

  Actual Average Record
Temperature  
Mean Temperature 31 °F 32 °F  
Max Temperature 50 °F 45 °F 57 °F (2006)
Min Temperature 12 °F 19 °F 1 °F (2008)
Degree Days  
Heating Degree Days 34 33  
Month to date heating degree days 218 205  
Since 1 July heating degree days 6230 6010  
Cooling Degree Days 0 0  
Month to date cooling degree days 0 0  
Year to date cooling degree days 0 0  
Moisture  
Dew Point 16 °F    
Average Humidity 52    
Maximum Humidity 75    
Minimum Humidity 29    
Precipitation  
Precipitation 0.00 in 0.03 in 0.04 in (2009)
Month to date precipitation 0.02 0.19  
Year to date precipitation 1.06 2.08  
Sea Level Pressure  
Sea Level Pressure 30.03 in    
Wind  
Wind Speed 5 mph (SSE)    
Max Wind Speed 25 mph    
Max Gust Speed 31 mph    
Visibility 10 miles    
Events      
T = Trace of Precipitation, MM = Missing Value Source: NWS Daily Summary

Daily Weather History Graph

Daily Weather History Graph

Search for Another Location

Airport or City:

Trip Planner

Search our weather history database for the weather conditions in past years. The results will help you decide how hot, cold, wet, or windy it might be!

Date:

Astronomy

Mar. 06, 2013 Rise Set
Actual Time 6:36 AM MST 6:09 PM MST
Civil Twilight 6:09 AM MST 6:36 PM MST
Nautical Twilight 5:38 AM MST 7:07 PM MST
Astronomical Twilight 5:06 AM MST 7:39 PM MST
Moon 2:48 AM MST (3/6) 12:54 PM MST (3/6)
Length of Visible Light 12h 26m
Length of Day
11h 32m
Waning Crescent, 29% of the Moon is Illuminated
Mar 6
Waning Crescent
Mar 11
New
Mar 19
First Quarter
Mar 27
Full
Apr 2
Last Quarter

Hourly Weather History & Observations

Time (MST) Temp. Windchill Dew Point Humidity Pressure Visibility Wind Dir Wind Speed Gust Speed Precip Events Conditions
12:53 AM 14.0 °F 6.5 °F 6.1 °F 71% 30.23 in 10.0 mi NE 4.6 mph - N/A   Clear
1:53 AM 17.1 °F - 7.0 °F 65% 30.18 in 10.0 mi Calm Calm - N/A   Clear
2:53 AM 15.1 °F - 6.1 °F 68% 30.15 in 10.0 mi Calm Calm - N/A   Clear
3:53 AM 12.9 °F 6.9 °F 5.0 °F 71% 30.13 in 10.0 mi NE 3.5 mph - N/A   Clear
4:53 AM 12.0 °F 4.1 °F 5.0 °F 73% 30.15 in 10.0 mi ENE 4.6 mph - N/A   Clear
5:53 AM 14.0 °F 8.2 °F 6.1 °F 71% 30.14 in 10.0 mi Variable 3.5 mph - N/A   Clear
6:53 AM 12.9 °F - 5.0 °F 71% 30.16 in 10.0 mi Calm Calm - N/A   Clear
7:53 AM 21.0 °F - 10.0 °F 63% 30.14 in 10.0 mi Calm Calm - N/A   Clear
8:53 AM 28.9 °F - 12.9 °F 51% 30.12 in 10.0 mi Calm Calm - N/A   Clear
9:53 AM 34.0 °F - 16.0 °F 48% 30.09 in 10.0 mi Calm Calm - N/A   Clear
10:53 AM 39.0 °F - 19.0 °F 45% 30.05 in 10.0 mi Calm Calm - N/A   Clear
11:53 AM 48.0 °F - 21.0 °F 34% 29.99 in 10.0 mi SSW 12.7 mph - N/A   Mostly Cloudy
12:53 PM 48.0 °F - 21.0 °F 34% 29.95 in 10.0 mi SSW 13.8 mph 23.0 mph N/A   Scattered Clouds
1:53 PM 46.9 °F - 21.9 °F 37% 29.93 in 10.0 mi SW 11.5 mph - N/A   Partly Cloudy
2:53 PM 48.0 °F - 19.9 °F 33% 29.91 in 10.0 mi SW 21.9 mph 29.9 mph N/A   Clear
3:53 PM 48.9 °F - 21.0 °F 33% 29.90 in 10.0 mi SSW 9.2 mph - N/A   Clear
4:53 PM 48.9 °F - 17.1 °F 28% 29.91 in 10.0 mi SSW 19.6 mph 27.6 mph N/A   Clear
5:53 PM 45.0 °F 41.8 °F 21.0 °F 39% 29.93 in 10.0 mi SSW 5.8 mph - N/A   Clear
6:53 PM 36.0 °F - 24.1 °F 62% 29.98 in 10.0 mi Calm Calm - N/A   Clear
7:53 PM 33.1 °F 30.0 °F 24.1 °F 70% 29.97 in 10.0 mi East 3.5 mph - N/A   Clear
8:53 PM 32.0 °F 28.7 °F 21.9 °F 66% 29.94 in 10.0 mi NE 3.5 mph - N/A   Clear
9:53 PM 30.9 °F - 21.9 °F 69% 29.92 in 10.0 mi Calm Calm - N/A   Clear
10:53 PM 28.9 °F 23.9 °F 21.0 °F 72% 29.91 in 10.0 mi NE 4.6 mph - N/A   Clear
11:53 PM 28.9 °F - 21.0 °F 72% 29.86 in 10.0 mi Calm Calm - N/A   Clear